Regional Weather Roundup
Issued by NWS

Home | Current Version | Previous Version | Text Only | Print | Product List | Glossary Off
Versions: 1 2 3 4 5 6 7 8 9 10 11 12 13 14 15 16 17 18 19 20 21 22 23 24 25 26 27 28 29 30 31 32 33 34 35 36 37 38 39 40 41 42 43 44 45 46 47 48 49 50

000
ASUS43 KTOP 200059
RWRKS

WEATHER ROUNDUP FOR KANSAS
NATIONAL WEATHER SERVICE GOODLAND KS
800 PM CDT SAT APR 19 2014

NOTE:  "FAIR" INDICATES FEW OR NO CLOUDS BELOW 12,000 FEET WITH NO
SIGNIFICANT WEATHER AND/OR OBSTRUCTIONS TO VISIBILITY.

KSZ001>006-013>018-027>032-041>047-200200-
NORTHWEST KANSAS

CITY           SKY/WX    TMP DP  RH WIND       PRES   REMARKS
GOODLAND       PTCLDY    65  47  52 NE13      29.98R
HAYS           MOCLDY    75  48  38 S21       29.91S
HILL CITY      MOCLDY    76  47  35 SW9       29.91R
RUSSELL        MOCLDY    73  49  42 S17       29.92R
$$

KSZ061>065-074>080-084>089-200200-
SOUTHWEST KANSAS

CITY           SKY/WX    TMP DP  RH WIND       PRES   REMARKS
DODGE CITY     MOCLDY    74  45  35 S20       29.95R
ELKHART          N/A     69  46  43 SW9         N/A
GARDEN CITY    MOCLDY    73  48  41 S21G29    29.94R
GREAT BEND     MOCLDY    73  50  43 S21G29    29.93R
LIBERAL        CLOUDY    72  46  40 S21G26    29.96S
$$

KSZ066>073-081>083-090>101-200200-
SOUTHEAST KANSAS

CITY           SKY/WX    TMP DP  RH WIND       PRES   REMARKS
CHANUTE        MOCLDY    68  44  42 S9        30.07S
COFFEYVILLE    MOCLDY    70  47  43 S9        30.07S
HUTCHINSON     CLEAR     73  48  41 S15       29.98S
NEWTON         PTCLDY    72  46  40 S15       30.03F
PARSONS        MOCLDY    71  43  36 S7        30.08S
WICHITA INTL   MOCLDY    73  49  42 S17G28    30.00S
WICHITA JABRA  PTCLDY    73  48  41 S16       30.01R
WINFIELD       MOCLDY    72  48  42 S13G23    30.04S
$$

KSZ007>012-019>026-033>040-048>060-102>105-200200-
NORTHEAST KANSAS

CITY           SKY/WX    TMP DP  RH WIND       PRES   REMARKS
CONCORDIA      MOCLDY    74  50  42 S15       29.94S
EMPORIA        MOCLDY    70  45  40 SE15      30.03S
LAWRENCE       MOCLDY    68  46  45 SE8       30.06R
MANHATTAN      CLOUDY    76  45  33 S14G21    29.98S
OLATHE IND     MOCLDY    65  45  48 S8        30.07F
OLATHE EXE     MOCLDY    68  45  43 S8        30.07R
SALINA         PTCLDY    77  49  37 S15G24    29.96S
TOPEKA BILLARD MOCLDY    72  44  36 S9        30.04R
TOPEKA FORBES  MOCLDY    70  43  37 S12       30.04R
$$



USA.gov is the U.S. government's official web portal to all federal, state and local government web resources and services.